High Desert Yearling Classic - Mcgil Nv. 200 Miles

Station: McGil Nevada - A Race

Distance: 200 Miles    

Release: 16-May-2018 07:00

Weather Release:    Arrival:

Wind at Release:     Wind at Arrival:

Temp at Release: °    Temp at Arrival: °

Lofts: 96

Birds: 394

Clocked: 376

Good Luck to Everyone!
Drops Pos Breeder Pigeon Name Color Sex Ent Arrival Speed To Win Eligible
300 Jose Rangel - UT 43347-AU17-AA BB H 1 11:44:15.00 1238.347 00:59:32 Yes
301 Papas Loft - ID 20337-AU17-ARPU BC C 6 11:44:19.00 1238.056 00:59:36 Yes
302 Bert Bruno - UT 79329-AU17-ARPU BCSP C 7 11:44:20.00 1237.984 00:59:37 Yes
302 Doug Donner - CO 13482-AU17-ARPU BB C 3 11:44:20.00 1237.984 00:59:37 Yes
304 King Of The Hill - AZ 0832-AU17-PSC BB H 3 11:46:38.00 1228.050 01:01:55 Yes
305 Venn Family Loft - WY 87133-AU17-ARPU BB C 5 11:46:42.00 1227.764 01:01:59 Yes
306 Bert Bruno - UT 36365-AU17-JEDD BC C 8 11:50:39.00 1211.079 01:05:56 Yes
307 Frank Locante - WI 17026-AU17-FRLO DC C 4 11:55:09.00 1192.614 01:10:26 Yes
308 Stella Loft - TX 44762-AU17-AA MLY C 4 11:55:12.00 1192.412 01:10:29 Yes
309 Marian Taloi - OR 0476-AU17-OTC BC H 7 11:58:32.00 1179.098 01:13:49 Yes
310 Racing Pigeon Mall - WA 0722-AU17-RPM BB H 6 11:59:26.00 1175.554 01:14:43 Yes
311 Venn Family Loft - WY 87131-AU17-ARPU BBSP H 6 12:00:53.00 1169.889 01:16:10 Yes
312 F & D Lofts - AB 17242-AU17-FD BC C 3 12:01:18.00 1168.271 01:16:35 Yes
313 Flanigans - OH 0568-AU17-HOF BCWF C 2 12:01:25.00 1167.819 01:16:42 Yes
314 Racing Pigeon Mall - WA 0719-AU17-RPM BC H 7 12:05:37.00 1151.770 01:20:54 Yes
315 Jose Rangel - UT 43353-AU17-AA BCWF C 2 12:05:45.00 1151.267 01:21:02 Yes
316 Ray Sackett - ID 0081-AU17-IDA BCSP H 4 12:08:10.00 1142.239 01:23:27 Yes
317 Best Loft - IL 1663-AU17-CHI BB H 2 12:08:20.00 1141.622 01:23:37 Yes
318 Fly & Criddle - ID 6601-AU17-FOYS BC H 4 12:26:35.00 1077.826 01:41:52 Yes
318 Eagle Ridge Lofts - WY 17037-AU17-EAGL WTSP C 4 12:26:35.00 1077.826 01:41:52 Yes
320 Roberts Family Loft - MA 0181-IF17-NWC Rachel Alexandra BC H 4 12:26:36.00 1077.771 01:41:53 Yes
321 Hammon And Friends - AZ 0421-AU17-DWI BB H 10 12:26:39.00 1077.606 01:41:56 Yes
321 Bieche-Stevenson - CA 7577-AU17-BIEC DC C 3 12:26:39.00 1077.606 01:41:56 Yes
323 Carlton Kroese-Crazy Al - CO 1283-AU17-HOHC BB H 3 12:26:40.00 1077.551 01:41:57 Yes
324 Twin Loft & Joe - MD 43397-AU17-AA BCPD H 3 12:33:09.00 1056.581 01:48:26 Yes
325 Warbird Loft - CO 7351-AU17-FH Bzxhiv BC C 12 12:44:55.00 1020.536 02:00:12 Yes
326 Carlton Kroese-Crazy Al - CO 5169-AU17-CRAZ DC C 4 12:57:21.00 985.029 02:12:38 Yes
327 Rory Smith - UT 7381-AU17-CDR BBWF C 6 12:57:30.00 984.615 02:12:47 Yes
328 Carlton Kroese-Crazy Al - CO 1285-AU17-HOHC BC C 5 13:09:07.00 953.628 02:24:24 Yes
329 Danny Lum - HI 7770-AU17-HIC BB C 4 13:10:25.00 950.281 02:25:42 Yes
330 Marian Taloi - OR 11080-AU17-JEDD DC C 8 13:16:11.00 935.714 02:31:28 Yes
331 Steve Beier - AZ 0716-AU17-IDA BB H 5 13:25:26.00 913.258 02:40:43 Yes
332 Haack Loft - CA 1370-AU17-GHC BB H 6 13:44:18.00 870.641 02:59:35 Yes
333 " Team No Good " - CA 4116-AU17-JEDD “ Nathan’s Pick “ BB H 2 13:56:28.00 845.206 03:11:45 Yes
334 Huan Qiu Zhang - NC 1710-IF17-JNC BC C 3 13:56:30.00 845.138 03:11:47 Yes
335 F & D Lofts - AB 17243-AU17-FD BC C 4 13:57:47.00 842.542 03:13:04 Yes
336 Sam Haslem - UT 7806-AU17-CDR BB H 7 14:13:07.00 812.714 03:28:24 Yes
337 Bert Bruno - UT 36364-AU17-JEDD BC H 9 15:14:36.00 711.686 04:29:53 Yes
338 Ganus Family Loft - IN 0144-AU17-GFL BBWF C 7 15:22:31.00 700.474 04:37:48 Yes
339 E M C Syndicate - LA 7251-AU17-CENL BBSP H 1 15:28:35.00 692.119 04:43:52 Yes
340 Warbird Loft - CO 7327-AU17-FH 2wxkanii BC H 13 15:57:45.00 654.579 05:13:02 Yes
341 E M C Syndicate - LA 7232-AU17-CENL BCWF H 2 15:57:47.00 654.539 05:13:04 Yes
342 Bert Bruno - UT 36361-AU17-JEDD RC C 10 16:06:32.00 644.060 05:21:49 Yes
343 Bert Bruno - UT 11475-IF17-FOYS BBWF H 11 16:28:02.00 619.682 05:43:19 Yes
344 Sunshine Loft - BC 18785-CU17-CRPU BB C 2 16:28:43.00 618.937 05:44:00 Yes
345 Rebel Wings - UT 0364-AU17-DWI BC C 4 16:29:04.00 618.557 05:44:21 Yes
346 D & L Lofts - BC 1232-CU17-MTNP BB C 4 16:30:23.00 617.129 05:45:40 Yes
347 Ganus Family Loft - IN 0479-AU17-GFL BC H 8 17:00:58.00 585.723 06:16:15 Yes
348 Powerstroke Loft - UT 0180-IF17-PS BB H 5 17:16:01.00 571.413 06:31:18 Yes
349 Flyhome Loft - CA 26371-AU17-ARPU BC C 5 17:32:18.00 556.698 06:47:35 Yes
350 Sextons Loft - IA 31764-AU17-AA BC H 1 17:42:59.00 547.448 06:58:16 Yes
351 Spring Break Race - UT 16720-AU17-AA BB H 3 17:58:25.00 534.616 07:13:42 N/E
352 Scott/Carol Team - UT 0374-AU17-DWI BB H 5 18:57:15.00 490.763 08:12:32 Yes
353 Warbird Loft - CO 7352-AU17-FH Sprint Seven BB C 14 19:18:12.00 476.836 08:33:29 Yes
354 Fly & Criddle - ID 6655-AU17-FOYS 554/1668 MLY C 5 19:18:40.00 476.534 08:33:57 Yes
355 Eagle Ridge Lofts - WY 17034-AU17-EAGL DC H 5 19:26:37.00 471.460 08:41:54 Yes
356 Hammon And Friends - AZ 0409-AU17-DWI BC C 11 19:27:57.00 470.620 08:43:14 Yes
357 Eagle Ridge Lofts - WY 17016-AU17-EAGL PNSP C 6 19:49:57.00 457.173 09:05:14 Yes
358 Jimmy Zheng Loft - MS 0659-AU17-JZ BB H 5 19:56:52.00 453.102 09:12:09 Yes
359 Racing Pigeon Mall - WA 0732-AU17-RPM BLK C 8 20:11:17.00 444.847 09:26:34 Yes
360 Pelican Loft - ID 1792-AU17-PEL BB C 6 2018-05-17 06:47:05.00 377.649 11:47:22 Yes
361 Arnel Vega-Centmeyer - CA 1821-AU17-ARN RC C 1 2018-05-17 07:41:23.00 356.859 12:41:40 Yes
362 High Plains Drifter Loft - CO 0026-AU17-HPDL BBWF H 3 2018-05-17 07:54:31.00 352.170 12:54:48 Yes
363 Western Loft - CA 8380-AU17-RMCL BB C 2 2018-05-17 08:09:06.00 347.106 13:09:23 Yes
364 Mike Beam - KS 70812-AU17-TOP BLK H 2 2018-05-17 08:28:53.00 340.464 13:29:10 Yes
365 Powerstroke Loft - UT 0183-IF17-PS BC C 6 2018-05-17 08:38:35.00 337.299 13:38:52 Yes
366 F & D Lofts - AB 17244-AU17-FD BC C 5 2018-05-17 08:39:15.00 337.084 13:39:32 Yes
367 Warbird Loft - CO 7334-AU17-FH Super Crack Rookies Gaea BC H 15 2018-05-17 09:06:29.00 328.517 14:06:46 Yes
368 Racing Pigeon Mall - WA 0720-AU17-RPM BLK H 9 2018-05-17 09:44:27.00 317.274 14:44:44 Yes
369 Marian Taloi - OR 0491-AU17-OTC Greg Mcknight Cross BBSP H 9 2018-05-17 09:44:31.00 317.255 14:44:48 Yes
370 Ganus Family Loft - IN 0921-AU17-GFL RC C 9 2018-05-17 10:50:57.00 299.332 15:51:14 Yes
371 Warbird Loft - CO 7335-AU17-FH Super Crack Bjorn BC C 16 2018-05-17 10:55:36.00 298.153 15:55:53 Yes
372 3 Stars & A Sun Loft - TX 0773-AU17-LS BB H 2 2018-05-17 11:45:18.00 286.109 16:45:35 Yes
373 Michael Kelly - CA 1734-AU17-ARC BB H 6 2018-05-17 12:19:46.00 278.312 17:20:03 Yes
374 Woodland Loft - NY 2261-IF17-EMC BB C 3 2018-05-17 13:34:08.00 262.857 18:34:25 Yes
375 Pigeon Village - ID 0881-AU17-IDA BC H 4 2018-05-18 19:35:37.00 132.950 40:22:54 Yes
Ed Kehl - UT 0384-AU17-WFA BBWF H 00:00:00.00 0.000 Yes
B S Syndicate - IL 0002-AU17-BEKO BB H 00:00:00.00 0.000 Lost
Flanigans - OH 0570-AU17-HOF BB H 00:00:00.00 0.000 Yes
Almosta Loft - WA 47993-AU17-AA BB C 00:00:00.00 0.000 Lost
El Dorado Lofts Canada - BC 1197-CU17-MTNP BC H 00:00:00.00 0.000 Lost
Thunder Birds/Rodriguez Breeding Loft - TX 17848-AU17-WIN Hit girl BB H 00:00:00.00 0.000 Yes
Bert Bruno - UT 79326-AU17-ARPU RC C 00:00:00.00 0.000 Lost
F & D Lofts - AB 17252-AU17-FD BB H 00:00:00.00 0.000 Yes
Dream Team - VT 0826-AU17-JCZL BB C 00:00:00.00 0.000 Yes
Eagle Ridge Lofts - WY 17031-AU17-EAGL BC H 00:00:00.00 0.000 Lost
Huan Qiu Zhang - NC 1747-IF17-JNC BBSP C 00:00:00.00 0.000 Yes
Fly & Criddle - ID 6666-AU17-FOYS 155/1522 BB H 00:00:00.00 0.000 Yes
D & L Lofts - BC 1113-CU17-MTNP BB H 00:00:00.00 0.000 Yes
Dave Dudley/Ron Moden - CO 17137-AU17-PUE BLK H 00:00:00.00 0.000 Yes
Dave Dudley/Ron Moden - CO 17043-AU17-PUE BBPN C 00:00:00.00 0.000 Yes
Stella Loft - TX 44761-AU17-AA PNWF C 00:00:00.00 0.000 Yes
Yong Bi - TX 59039-AU17-ARPU BC C 00:00:00.00 0.000 Yes
Mc Laughlin Lofts - MA 1234-AU17-MCLO BC C 00:00:00.00 0.000 Yes
Adirondack Team - NY 12999-AU17-AA DCWF C 00:00:00.00 0.000 Yes

There are 492 bird records

Note: These Race Results are unofficial and subject to change until verified by the Race Committee and declared final.

Click for forecast!